Погода в Владимирове

Россия / Калининградская область     54°33′30″N   20°31′54″E
темп.,
°C
ветер,
м/с
пор.,
м/с
влажн.,
%
обл.,
%
осадки,
мм/ч
давл.,
гПа
погр.,
м
17 апреля, сб
сб1723:00+8с3892100 0.0 1018209
02:00+8ссв3109193 0.0 1019320
05:00+5св3997100 0.0 1019218
08:00+8всв369176 0.0 1020310
11:00+12всв4579100 0.0 1020812
14:00+12всв4676100 0.1 10201030
17:00+13в357290 0.0 1020845
20:00+9в379255 0.2 1021138
18 апреля, вс
вс1823:00+10св3888100 0.0 1021231
02:00+9всв3990100 0.0 1022307
05:00+6всв379697 0.0 1022147
08:00+9всв478498 0.0 1022284
11:00+14всв466611 0.0 1021992
14:00+15св4665100 0.0 10211144
17:00+14всв377367 0.4 1020218
20:00+11в348378 0.8 102165
19 апреля, пн
пн1923:00+11всв3783100 0.0 1021157
02:00+10в2388100 0.0 102185
05:00+9в2787100 0.0 1021193
08:00+9в3881100 0.0 1022310
11:00+11в357199 0.0 1022399
14:00+14всв565260 0.0 10211863
17:00+11в587499 0.4 1020819
20:00+7всв39855 0.6 1020239
20 апреля, вт
вт2023:00+8всв2782100 0.0 1020264
02:00+7св2482100 0.0 1019107
05:00+7ссв2584100 0.1 1018146
08:00+9св377790 0.1 1017399
11:00+10св4574100 1.1 1016724
14:00+12св3464100 2.0 10141227
17:00+10ссв457491 1.2 1013727
20:00+6ссз23886 1.4 101350
21 апреля, ср
ср2123:00+4сз229049 0.0 101234
02:00+4зсз34906 0.0 101074
05:00+3з38945 0.0 1009163
08:00+7зсз48795 0.0 1009373
11:00+10зсз57645 0.1 10081054
14:00+10зсз575812 0.2 10081075
17:00+10зсз35585 0.0 1008695
20:00+5з12795 0.0 100810